Wind_Speed
12 13 14 14 14 14 13 13 14 14 14 14 13 13 12 12 12 12 12 12 12 12 11 11 11 10 11 11 11 11 11 11 11 11 10 10 10 10 11 11 11 11 11 12
13 14 14 15 15 15 15 15 14 15 15 15 14 14 13 13 13 13 13 13 13 13 12 12 11 11 10 11 11 11 11 12 11 11 11 11 11 10 11 11 12 12 12 13
14 14 15 16 15 15 15 15 15 15 15 15 15 14 14 13 13 13 13 13 13 13 13 12 12 11 11 11 12 12 12 12 12 11 11 11 11 11 11 12 12 12 13 14
15 15 15 16 16 16 16 16 15 15 15 15 15 15 15 15 14 14 13 13 13 13 14 13 13 13 13 12 12 12 12 12 12 12 11 11 12 11 12 12 13 13 14 14
15 15 16 17 17 17 16 16 16 16 15 15 15 15 15 16 15 14 14 14 14 14 14 14 14 14 14 13 13 13 12 12 12 12 12 12 12 12 13 14 14 13 14 14
15 15 16 16 17 17 16 17 17 16 16 16 16 16 15 15 16 15 15 14 14 15 15 15 15 15 14 14 13 13 13 13 13 13 13 13 13 13 14 14 14 14 14 14
14 15 15 16 17 17 17 17 17 17 17 17 16 17 16 15 15 15 15 15 15 15 16 16 16 15 15 15 14 14 14 13 13 13 13 13 14 14 14 14 14 14 15 15
13 14 15 15 16 16 16 17 17 17 17 17 17 17 17 16 15 15 16 16 16 16 17 17 17 16 15 15 15 15 14 14 14 14 14 14 15 14 15 15 15 15 16 16
12 13 14 15 16 16 17 17 17 17 16 15 17 17 17 16 16 16 17 16 16 16 16 16 17 16 16 16 16 16 16 15 15 16 16 15 15 15 16 16 16 16 16 17
12 13 14 15 16 15 15 16 16 16 16 15 16 16 17 16 17 17 18 17 17 16 17 17 17 17 17 18 18 17 16 17 16 17 17 17 16 16 17 16 16 16 17 17
12 13 13 16 15 14 15 15 16 17 16 16 16 17 17 17 17 17 17 18 18 18 17 17 17 18 18 18 19 18 17 17 17 17 18 18 17 17 17 17 17 17 17 18
11 12 13 14 15 14 14 15 16 17 17 17 17 17 17 17 18 17 17 18 18 19 19 19 18 18 19 18 18 19 18 18 18 18 18 18 18 18 18 18 18 19 19 20
10 12 13 14 14 14 14 16 17 17 17 17 17 17 16 18 18 18 19 19 19 19 19 19 19 19 19 19 19 19 19 19 20 19 19 19 19 19 19 19 20 20 21 21
11 11 13 13 14 15 15 16 17 17 17 18 18 18 18 18 18 19 20 19 20 20 19 19 19 19 19 19 20 20 20 21 21 21 21 21 21 21 21 21 21 22 22 21
13 13 13 14 14 15 16 16 17 17 18 18 18 19 18 19 19 19 20 20 20 20 20 20 20 20 19 20 20 21 21 22 22 22 22 21 22 22 22 23 23 23 23 22
14 15 15 14 14 15 16 17 17 18 19 19 18 18 19 19 20 19 19 20 20 20 20 20 20 21 21 21 21 22 23 23 23 23 23 23 23 23 23 23 23 23 23 23
16 16 17 16 16 16 16 17 19 18 18 19 18 17 18 19 19 19 19 20 20 20 21 21 22 22 22 22 22 23 23 24 24 24 24 24 24 24 24 24 24 24 24 24
16 16 17 18 17 17 16 16 18 18 18 18 18 18 18 19 19 19 19 20 21 21 22 22 22 23 23 23 23 23 24 24 25 25 25 25 25 25 25 24 24 24 24 24
17 17 18 18 18 18 17 17 17 18 18 18 18 18 19 19 19 19 20 20 21 22 23 23 23 24 24 25 25 25 25 25 26 26 26 26 26 26 25 24 24 24 24 24
18 18 19 19 20 19 18 18 19 19 18 18 18 18 19 20 21 21 21 21 22 22 23 24 25 26 26 26 26 26 27 27 27 26 26 26 27 27 26 25 25 25 25 25
18 19 20 21 22 21 21 20 20 21 20 18 19 20 20 21 22 22 23 23 24 24 25 26 26 27 27 27 26 27 28 28 28 28 27 27 27 27 27 27 26 26 26 25
19 20 20 21 22 22 21 21 21 21 21 20 20 21 21 22 22 24 24 24 24 25 26 26 26 26 27 27 27 27 27 28 29 28 28 28 28 28 28 28 27 27 27 26
20 20 21 21 21 22 22 22 22 22 22 22 22 21 22 22 23 24 25 25 25 25 26 25 26 26 27 27 27 28 28 28 28 29 29 29 29 28 28 28 28 28 28 27
20 21 22 22 21 22 22 22 21 22 23 23 23 22 22 22 23 24 25 26 26 26 26 26 26 27 27 28 28 28 28 28 29 29 29 29 29 29 29 30 30 29 29 28
21 21 21 21 22 23 23 24 24 23 23 23 23 23 23 23 24 24 24 26 27 27 27 27 27 27 27 28 28 29 29 29 29 29 29 29 29 29 30 30 30 30 30 29
21 21 22 22 22 23 23 24 24 24 23 23 24 24 24 24 25 25 25 25 25 26 27 27 27 27 27 27 27 28 28 29 29 29 29 29 30 30 30 29 29 29 29 29
Wind_Direction
238 235 233 232 231 232 233 237 239 238 238 238 240 242 244 247 246 248 250 252 254 256 257 258 257 259 260 260 261 261 259 259 259 262 265 267 271 275 276 277 278 280 280 281
241 238 235 233 231 231 231 235 238 239 239 241 241 240 243 245 246 249 253 253 253 254 256 257 258 260 263 264 264 265 264 259 260 264 269 270 272 276 280 281 283 285 284 282
242 239 236 232 231 232 234 235 237 242 241 244 245 243 240 242 245 247 251 253 252 253 254 257 259 262 264 264 265 265 264 262 263 267 269 272 273 276 280 282 284 287 286 284
240 239 237 234 232 232 236 238 240 242 243 245 245 246 243 245 245 246 249 252 253 253 253 256 258 262 265 266 266 265 264 264 265 267 270 274 277 280 282 284 285 286 286 285
241 242 239 237 235 234 236 239 241 243 243 244 245 248 245 245 245 246 248 250 252 254 256 259 260 263 267 269 268 266 265 264 266 269 272 275 279 281 283 284 285 285 284 284
245 242 240 237 235 235 238 240 241 244 244 243 244 247 246 246 246 247 249 250 252 254 257 260 261 263 265 267 268 267 269 269 268 270 272 275 277 280 284 285 284 283 282 282
242 240 240 239 236 235 238 238 241 245 245 244 245 246 246 247 244 244 248 251 252 255 258 260 260 262 264 265 267 269 269 269 270 270 271 274 276 280 284 284 283 282 281 281
240 239 240 238 235 236 238 238 240 246 247 248 246 246 246 247 245 246 248 250 252 255 258 260 261 261 262 263 265 267 268 267 270 272 272 274 276 280 283 284 283 282 281 281
240 239 240 236 233 236 237 240 242 246 248 249 250 250 251 250 249 249 247 248 251 254 256 259 261 262 262 262 264 267 267 270 274 275 275 275 277 280 284 284 283 282 282 282
242 242 240 237 233 239 236 236 243 246 248 252 254 255 255 253 251 251 251 251 253 254 257 260 262 263 264 264 265 267 270 272 276 277 276 275 277 280 284 283 284 284 285 285
246 246 243 238 235 239 236 237 241 245 249 253 259 262 260 257 254 255 255 256 256 256 257 260 262 264 265 266 267 267 270 274 275 275 276 275 276 280 283 283 284 283 285 287
250 247 246 241 240 241 238 238 242 248 253 256 258 262 263 261 258 255 255 257 259 259 258 259 261 264 265 266 267 268 271 273 275 276 278 278 278 280 281 283 283 283 285 288
249 246 243 242 245 245 246 241 243 249 254 258 261 263 264 264 261 258 258 259 260 260 258 258 260 263 265 265 265 267 271 272 274 276 277 279 278 279 281 282 283 283 283 286
250 247 244 247 251 245 249 246 245 251 255 258 260 262 263 264 263 261 261 260 259 258 258 258 260 262 265 266 267 267 270 272 274 276 277 278 279 279 280 282 283 283 283 285
251 250 246 249 251 247 252 254 253 254 258 258 260 263 262 261 261 262 261 260 258 257 257 259 260 262 264 267 268 269 269 272 274 276 278 279 280 281 282 282 283 283 284 284
253 253 250 252 253 252 254 257 258 259 262 262 263 262 261 261 260 261 261 259 258 256 258 260 262 264 265 267 269 270 271 273 274 277 280 279 282 284 284 284 285 284 283 282
253 255 254 255 257 258 260 261 261 260 262 265 264 265 262 261 261 260 259 258 259 257 259 260 263 266 267 269 270 272 273 275 276 277 280 282 282 283 285 285 285 286 283 282
253 256 258 259 258 260 266 264 264 265 264 265 266 265 265 262 260 259 259 259 260 260 260 262 263 267 268 269 270 272 273 275 277 278 280 282 282 283 286 287 285 286 285 284
255 257 260 262 264 265 265 265 267 269 268 264 265 266 268 265 262 259 260 262 262 262 263 264 265 268 269 269 269 270 272 274 276 279 281 281 282 283 285 286 285 285 285 285
257 259 262 264 265 268 269 266 267 271 272 269 267 266 267 266 264 263 263 264 265 265 266 266 267 268 268 269 268 269 271 273 275 278 280 281 281 282 284 285 286 286 285 285
258 260 262 265 267 269 273 272 270 271 273 269 267 268 269 268 267 266 267 268 269 269 269 269 269 269 270 270 269 269 271 273 275 277 279 280 281 282 284 284 285 286 286 285
260 262 263 265 268 270 273 273 271 271 270 271 270 269 269 270 269 269 271 273 273 273 273 272 270 269 270 270 271 272 274 275 276 277 279 280 280 281 283 283 284 285 285 286
262 263 265 267 269 271 271 273 272 271 270 271 272 270 269 270 271 271 272 273 274 274 273 273 272 272 272 271 273 274 275 276 276 277 278 280 280 280 282 283 284 284 283 284
264 265 266 267 270 270 270 270 271 269 268 271 272 271 270 271 271 272 272 273 274 274 274 273 273 273 273 274 274 274 274 275 276 277 277 277 280 281 282 283 283 283 282 282
267 266 267 268 269 269 270 269 270 272 270 270 272 271 271 273 273 274 275 274 273 274 273 273 274 274 273 274 275 275 275 275 275 276 276 277 279 281 283 284 284 282 282 282
267 267 267 268 269 269 269 270 271 273 273 272 272 272 272 273 275 275 277 276 275 274 274 274 274 274 275 275 276 277 277 276 276 276 277 278 280 281 283 284 284 282 282 281
Height
5827 5829 5830 5832 5833 5836 5837 5838 5840 5841 5841 5843 5844 5845 5846 5846 5847 5848 5848 5849 5849 5849 5849 5850 5850 5850 5850 5849 5849 5849 5849 5849 5848 5848 5848 5847 5847 5846 5845 5844 5843 5842 5841 5840
5824 5825 5827 5828 5830 5831 5833 5835 5836 5838 5839 5840 5841 5842 5843 5843 5844 5845 5846 5846 5846 5847 5847 5847 5847 5847 5847 5847 5847 5846 5846 5846 5846 5845 5845 5844 5844 5843 5842 5841 5840 5839 5838 5837
5820 5822 5822 5824 5826 5828 5830 5832 5833 5834 5835 5836 5838 5839 5840 5841 5841 5842 5843 5843 5843 5844 5844 5844 5844 5844 5844 5844 5844 5843 5843 5843 5843 5842 5842 5842 5841 5840 5839 5838 5837 5836 5835 5833
5815 5817 5818 5820 5822 5824 5826 5828 5830 5831 5832 5833 5835 5836 5837 5837 5838 5839 5840 5840 5840 5841 5841 5841 5841 5841 5841 5841 5841 5840 5840 5839 5839 5839 5839 5838 5838 5837 5836 5835 5834 5832 5831 5830
5812 5813 5814 5816 5818 5820 5823 5824 5826 5827 5828 5830 5831 5832 5834 5834 5835 5836 5837 5837 5837 5837 5838 5838 5838 5838 5838 5838 5837 5837 5837 5836 5836 5836 5835 5835 5834 5833 5832 5831 5830 5829 5827 5826
5808 5809 5810 5811 5814 5816 5819 5821 5822 5823 5825 5826 5827 5829 5830 5831 5831 5832 5833 5833 5834 5834 5834 5834 5835 5835 5835 5834 5834 5834 5833 5833 5832 5832 5832 5831 5830 5829 5828 5827 5826 5825 5824 5823
5804 5805 5806 5807 5810 5812 5815 5817 5819 5819 5820 5822 5823 5824 5826 5827 5827 5828 5829 5830 5830 5830 5831 5831 5831 5831 5831 5831 5831 5830 5830 5829 5829 5828 5828 5827 5826 5825 5824 5823 5822 5821 5820 5819
5800 5801 5802 5803 5806 5808 5810 5813 5815 5816 5817 5818 5819 5819 5822 5823 5823 5824 5825 5825 5826 5826 5827 5827 5827 5827 5827 5827 5827 5827 5826 5825 5825 5824 5823 5823 5822 5821 5820 5819 5817 5816 5815 5814
5797 5798 5799 5799 5801 5804 5806 5808 5810 5812 5813 5814 5814 5816 5817 5818 5819 5819 5820 5821 5821 5822 5822 5822 5823 5823 5823 5823 5823 5822 5822 5821 5820 5819 5819 5818 5818 5816 5815 5814 5813 5812 5811 5810
5794 5795 5795 5796 5797 5799 5802 5804 5806 5807 5808 5810 5811 5812 5813 5814 5814 5815 5815 5816 5817 5817 5818 5818 5818 5818 5818 5818 5818 5817 5817 5816 5816 5815 5814 5813 5813 5812 5810 5809 5808 5807 5806 5805
5790 5791 5792 5793 5794 5795 5798 5800 5801 5803 5804 5806 5807 5810 5808 5809 5810 5810 5811 5811 5812 5813 5813 5813 5813 5813 5813 5813 5813 5813 5812 5812 5811 5810 5809 5808 5807 5807 5806 5804 5803 5802 5801 5800
5786 5787 5788 5789 5790 5791 5793 5796 5798 5800 5800 5801 5802 5806 5803 5803 5804 5805 5805 5806 5807 5807 5808 5808 5808 5808 5808 5808 5808 5808 5807 5807 5806 5805 5804 5803 5802 5801 5800 5799 5798 5797 5796 5794
5783 5784 5785 5786 5789 5789 5790 5791 5793 5795 5795 5796 5797 5801 5798 5798 5798 5799 5800 5801 5801 5801 5802 5802 5802 5803 5803 5803 5802 5802 5802 5802 5801 5800 5799 5798 5797 5796 5795 5794 5792 5791 5790 5788
5780 5781 5783 5784 5784 5785 5786 5787 5789 5790 5790 5791 5792 5793 5793 5793 5793 5794 5794 5794 5795 5796 5796 5796 5797 5797 5797 5797 5797 5797 5796 5796 5795 5795 5794 5793 5791 5790 5789 5788 5786 5785 5784 5782
5776 5777 5778 5779 5780 5781 5782 5783 5784 5785 5785 5786 5787 5787 5788 5787 5788 5788 5788 5789 5789 5790 5790 5791 5791 5791 5791 5791 5791 5791 5791 5790 5789 5789 5788 5787 5786 5784 5783 5781 5780 5779 5777 5776
5772 5774 5775 5775 5776 5777 5778 5779 5779 5780 5780 5781 5781 5781 5781 5781 5781 5782 5782 5782 5783 5784 5785 5785 5785 5785 5785 5785 5785 5785 5784 5784 5784 5783 5782 5781 5779 5778 5777 5775 5774 5772 5771 5769
5769 5770 5771 5772 5772 5772 5774 5774 5774 5775 5775 5776 5776 5776 5775 5775 5775 5776 5776 5777 5777 5778 5779 5779 5779 5779 5779 5779 5779 5779 5778 5778 5777 5776 5775 5774 5773 5772 5770 5769 5767 5765 5764 5762
5765 5766 5766 5767 5768 5768 5771 5769 5769 5770 5770 5770 5770 5770 5769 5769 5770 5770 5770 5771 5771 5772 5772 5772 5772 5773 5773 5772 5772 5772 5772 5771 5770 5770 5769 5768 5766 5765 5763 5762 5760 5758 5757 5755
5761 5762 5762 5762 5762 5763 5765 5765 5764 5764 5765 5765 5765 5764 5764 5764 5764 5765 5764 5765 5765 5765 5765 5765 5765 5765 5766 5765 5765 5765 5765 5764 5763 5763 5762 5761 5759 5758 5756 5754 5753 5751 5750 5748
5756 5757 5758 5758 5758 5758 5760 5760 5759 5760 5760 5760 5759 5759 5759 5759 5759 5760 5759 5758 5758 5758 5758 5758 5758 5758 5758 5758 5758 5758 5757 5757 5756 5755 5754 5753 5752 5750 5749 5747 5745 5744 5742 5740
5751 5752 5752 5753 5752 5753 5754 5754 5754 5755 5755 5754 5753 5753 5753 5753 5753 5753 5752 5752 5752 5751 5751 5751 5750 5750 5750 5750 5750 5750 5749 5749 5748 5747 5746 5745 5744 5742 5741 5739 5738 5736 5735 5733
5746 5746 5747 5747 5747 5750 5748 5748 5749 5749 5748 5747 5747 5747 5747 5747 5746 5746 5745 5745 5745 5744 5743 5743 5743 5743 5742 5742 5742 5741 5741 5740 5739 5739 5738 5737 5735 5734 5733 5731 5730 5728 5727 5725
5740 5741 5741 5742 5744 5742 5741 5741 5741 5741 5741 5741 5741 5741 5741 5740 5740 5739 5738 5738 5737 5737 5736 5736 5735 5735 5735 5734 5734 5733 5733 5732 5731 5730 5729 5728 5727 5725 5724 5723 5721 5720 5718 5717
5734 5734 5735 5735 5735 5735 5735 5734 5734 5735 5735 5734 5734 5734 5734 5733 5733 5732 5731 5730 5729 5729 5728 5728 5727 5727 5727 5726 5725 5725 5724 5723 5722 5721 5720 5719 5718 5717 5715 5714 5712 5711 5709 5708
5728 5728 5728 5728 5729 5728 5728 5728 5728 5728 5727 5727 5727 5727 5727 5726 5725 5724 5723 5722 5721 5721 5720 5720 5719 5719 5718 5717 5717 5716 5715 5714 5713 5712 5711 5710 5709 5708 5706 5705 5703 5702 5700 5699
5721 5722 5721 5721 5722 5721 5721 5721 5721 5721 5720 5720 5720 5720 5719 5719 5718 5716 5715 5714 5713 5712 5712 5711 5711 5710 5709 5709 5708 5707 5706 5705 5704 5703 5702 5701 5700 5698 5697 5695 5694 5692 5691 5689